Location: Caltech
(34.1382°N, 118.1253°W)
Time: 00:56:54
(UTC-07:00)

Cosmos 1939 Rocket - Visible Passes

Search period start: 17 August 2017 00:00
Search period end: 27 August 2017 00:00
Orbit: 534 x 586 km, 97.5° (Epoch: 17 August)

Date Brightness Start Highest point End Pass type
(mag) Time Alt. Az. Time Alt. Az. Time Alt. Az.
17 Aug 3.5 20:34:22 16° SE 20:37:03 36° ENE 20:40:42 10° N visible
17 Aug 5.7 22:10:17 10° WSW 22:12:04 13° W 22:13:53 10° WNW visible
18 Aug 3.5 20:33:14 17° SE 20:35:49 35° ENE 20:39:26 10° N visible
18 Aug 5.6 22:09:09 11° WSW 22:10:49 13° W 22:12:45 10° WNW visible
19 Aug 3.6 20:32:06 17° SE 20:34:34 34° ENE 20:38:09 10° N visible
19 Aug 5.6 22:08:01 11° WSW 22:09:33 14° W 22:11:36 10° WNW visible
20 Aug 3.6 20:30:57 18° SE 20:33:20 32° ENE 20:36:52 10° N visible
20 Aug 5.5 22:06:52 12° WSW 22:08:18 14° W 22:10:26 10° WNW visible
21 Aug 3.7 20:29:48 18° SE 20:32:05 31° ENE 20:35:35 10° N visible
21 Aug 5.5 22:05:44 13° WSW 22:07:03 14° W 22:09:16 10° WNW visible
22 Aug 3.7 20:28:40 18° ESE 20:30:51 30° ENE 20:34:18 10° N visible
22 Aug 5.4 22:04:35 13° WSW 22:05:47 15° W 22:08:05 10° WNW visible
23 Aug 3.8 20:27:31 18° ESE 20:29:35 29° ENE 20:33:01 10° NNE visible
23 Aug 5.4 22:03:26 14° WSW 22:04:31 15° W 22:06:55 10° WNW visible
24 Aug 3.8 20:26:23 19° ESE 20:28:20 28° ENE 20:31:43 10° NNE visible
24 Aug 5.4 22:02:18 15° WSW 22:03:16 16° W 22:05:43 10° NW visible
25 Aug 3.9 20:25:14 19° ESE 20:27:05 27° ENE 20:30:25 10° NNE visible
25 Aug 5.3 22:01:10 16° WSW 22:01:59 16° W 22:04:31 10° NW visible
26 Aug 3.9 20:24:05 19° ESE 20:25:50 26° ENE 20:29:07 10° NNE visible
26 Aug 5.3 22:00:01 16° WSW 22:00:44 17° W 22:03:19 10° NW visible
